RH
90 84 96 80 64 69 29 19 20 27 29 29 27 21 18 18 17 14 11 9 8 7 7 7 7 8 10 10 12 16 21 25 26 23 20 16 12 9 7 6 6 5 5
94 98 96 100 75 85 96 31 21 21 24 24 23 23 18 16 14 12 10 9 8 8 8 8 9 8 8 9 11 12 12 13 14 13 15 15 14 11 8 7 6 6 5
97 94 97 97 96 97 90 87 42 21 25 27 23 22 25 21 14 12 13 14 14 15 12 10 8 7 8 7 8 8 10 10 11 14 18 18 16 13 10 8 7 6 6
96 99 96 95 96 96 97 89 96 96 35 31 34 29 36 45 44 34 22 20 19 15 14 13 11 8 7 6 10 18 12 10 12 17 23 23 20 15 11 8 8 7 6
78 98 98 98 96 97 97 98 97 97 96 93 72 71 64 55 57 65 38 33 26 20 24 27 19 10 8 8 24 42 44 39 31 28 30 26 20 16 12 10 9 8 7
42 84 98 97 95 97 95 97 97 97 98 96 97 96 99 92 70 66 60 52 38 27 28 35 39 23 12 10 36 42 34 45 40 35 32 29 21 16 14 12 10 10 9
45 37 70 98 97 97 95 96 97 93 96 98 97 98 97 97 97 94 90 81 64 45 34 34 45 33 17 12 37 39 33 34 36 33 32 26 20 17 14 13 13 11 10
77 48 34 52 83 96 96 96 95 96 97 98 97 97 97 96 97 97 97 96 95 82 72 69 63 68 63 35 22 20 44 44 35 26 23 20 18 16 16 15 14 12 11
100 98 55 36 38 71 82 97 94 96 98 96 97 98 97 96 94 94 97 97 96 95 95 95 94 92 91 92 77 40 40 51 49 31 21 19 19 18 17 16 15 14 12
94 100 100 93 58 58 80 89 95 97 96 97 98 97 98 96 96 94 97 97 97 98 98 96 97 97 94 92 93 89 56 64 74 73 60 33 29 24 19 18 17 16 14
85 93 99 98 100 78 81 89 92 92 88 93 90 97 96 93 94 98 97 97 98 97 96 97 97 97 97 94 94 96 95 79 80 83 80 80 71 53 52 46 36 20 22
83 72 82 99 100 96 70 55 54 36 47 60 81 98 93 97 95 98 98 98 96 96 97 98 97 98 98 96 96 96 98 90 96 91 89 84 83 80 73 64 55 41 41
84 73 57 52 63 100 95 70 66 57 41 41 51 66 90 95 95 97 88 94 97 97 96 98 97 98 98 97 97 98 98 96 100 89 94 92 88 86 80 72 70 61 62
81 82 85 74 74 54 89 100 79 66 46 36 35 62 77 71 94 97 94 97 97 96 96 98 97 98 98 97 97 97 97 97 98 96 97 96 96 97 99 96 96 97 94
69 78 79 74 97 66 46 56 95 93 65 45 38 51 80 61 51 66 97 97 98 96 84 96 97 97 98 98 97 98 97 98 98 96 96 97 99 100 91 94 92 98 92
87 72 67 91 100 100 82 50 53 89 98 81 67 49 53 70 84 71 78 93 97 100 98 96 99 98 98 98 97 98 98 98 98 97 97 96 97 98 93 84 86 90 96
100 97 93 100 100 100 100 92 58 56 100 100 100 100 92 64 78 80 77 100 97 96 97 97 98 98 98 98 98 98 98 98 98 97 97 96 95 95 94 83 73 72 76
100 100 99 99 100 100 99 100 96 69 68 97 100 100 100 100 89 97 89 94 94 71 59 96 97 98 99 100 99 98 98 98 98 98 98 94 96 99 96 99 100 100 96
81 88 98 99 98 97 87 86 84 89 91 89 94 90 96 98 100 100 99 96 91 88 85 95 100 100 99 100 100 99 98 98 98 99 99 100 95 93 98 100 100 97 100
49 68 78 81 92 98 95 92 100 93 92 98 100 100 99 100 92 98 100 100 100 100 98 92 84 97 98 100 100 100 99 96 99 99 97 98 100 99 99 100 100 100 99
55 49 59 72 72 83 89 94 90 84 78 75 83 92 90 87 84 96 100 100 100 100 100 100 100 100 100 99 100 99 99 100 98 99 100 98 98 98 99 100 99 100 99
31 49 66 61 60 61 72 76 73 83 76 71 72 71 71 73 72 78 84 93 96 100 100 100 100 100 100 100 100 100 100 100 100 100 99 100 99 99 99 99 100 100 100
31 29 28 43 57 58 59 63 70 72 70 68 67 64 62 55 51 62 76 80 79 72 73 89 95 99 100 100 100 100 100 100 100 100 100 100 100 100 100 100 100 100 100
18 13 22 34 30 34 57 64 61 59 60 66 66 70 69 72 64 50 43 42 42 44 51 63 80 85 86 88 94 99 99 98 100 100 100 100 100 100 100 100 100 100 99
19 20 20 18 16 26 32 32 56 73 77 66 58 56 57 66 69 73 73 66 68 70 68 78 78 86 89 89 87 79 74 73 78 83 84 87 89 90 92 95 94 95 97
19 19 18 17 18 18 18 19 28 34 48 79 92 97 84 59 50 53 58 62 72 82 88 92 95 96 94 95 96 96 90 81 83 84 86 84 83 83 79 79 73 68 64
Wind_Speed
75 79 42 73 68 67 65 66 64 62 59 58 57 56 55 54 52 50 48 47 46 45 44 42 42 41 40 40 40 39 38 37 36 34 33 33 31 31 30 29 26 23 21
86 61 67 69 76 72 69 68 69 66 62 61 59 57 56 55 55 53 50 46 44 43 42 42 40 39 39 39 39 38 38 37 37 36 35 35 34 33 33 31 29 26 23
79 76 73 62 58 60 73 68 70 68 66 64 63 61 60 58 54 51 49 48 47 44 42 40 38 37 38 38 37 38 38 38 38 37 37 36 35 35 34 32 30 28 25
83 76 80 71 60 63 72 86 68 66 69 67 66 65 62 60 57 54 52 50 48 45 44 42 40 38 38 37 36 36 37 36 36 36 37 36 35 34 33 33 31 29 28
83 83 77 54 61 41 62 68 71 66 76 72 70 69 65 63 62 59 55 53 50 47 45 43 41 39 38 38 36 34 33 33 33 35 36 36 35 35 35 33 32 31 31
81 83 81 60 69 78 56 54 79 66 70 77 73 70 65 66 65 64 60 57 53 51 49 46 43 42 42 39 36 36 35 35 35 36 37 36 36 37 37 36 34 34 32
81 80 84 79 77 68 74 66 49 57 63 59 71 71 73 66 65 66 65 62 57 54 51 51 48 47 45 42 41 39 37 37 38 39 39 39 39 39 39 37 36 35 34
79 82 83 82 83 80 78 69 57 59 51 64 61 65 62 71 62 65 66 63 62 61 57 56 53 54 51 48 46 43 41 40 40 41 41 42 42 41 38 38 39 38 37
81 74 79 82 80 81 82 84 76 73 59 53 65 58 57 61 65 54 63 62 61 56 60 62 59 57 55 53 49 48 44 44 44 43 44 45 45 44 42 41 42 42 40
80 82 80 73 80 79 79 77 81 79 82 62 55 60 55 62 49 54 54 65 63 57 59 66 62 60 58 58 55 54 49 48 47 48 49 49 49 48 46 45 45 46 45
80 82 82 80 74 77 83 78 73 77 73 74 70 65 66 56 43 51 54 48 46 59 57 57 57 60 61 60 57 60 57 57 53 52 55 55 53 52 51 50 51 50 49
80 79 79 80 76 75 75 80 81 77 76 75 77 75 78 60 50 55 52 53 55 55 61 50 60 61 58 62 73 66 58 61 56 55 58 58 58 58 56 57 57 56 54
81 78 77 74 75 77 76 78 76 79 79 78 76 72 69 66 54 53 58 55 57 54 51 56 48 54 65 70 70 64 66 63 53 56 56 57 60 63 63 63 63 63 61
86 86 81 76 73 76 80 71 76 79 76 78 79 75 72 65 63 64 54 57 54 56 56 56 59 55 65 63 74 73 70 66 58 54 56 58 56 56 59 65 64 65 67
86 90 87 80 77 76 79 80 79 76 78 81 79 77 74 70 76 75 73 64 57 56 59 59 57 56 64 70 60 70 76 77 67 68 65 61 64 64 63 60 63 64 64
69 83 89 85 76 74 77 81 79 80 80 82 81 81 80 77 74 78 81 74 68 64 63 65 65 62 65 73 66 70 71 69 67 68 66 64 63 64 64 61 67 69 71
63 67 78 80 80 78 78 79 83 83 81 79 80 79 78 81 82 81 81 80 80 80 79 73 68 66 69 73 72 78 69 71 69 71 70 67 67 66 70 68 70 70 69
65 63 67 75 77 77 77 78 79 83 85 83 83 84 83 84 84 81 80 83 84 83 80 79 76 71 71 70 75 74 77 73 71 69 62 63 63 64 65 66 68 68 69
71 72 68 66 72 74 75 74 75 77 81 84 83 84 84 88 88 89 84 82 84 85 83 84 80 79 77 76 76 79 75 75 74 74 73 71 71 72 70 69 71 72 72
78 76 73 72 73 71 74 74 75 78 77 78 83 87 85 82 85 83 82 85 86 84 84 83 89 87 84 79 77 75 73 72 75 76 70 69 74 78 79 78 76 76 78
65 74 80 76 77 78 77 76 75 75 76 79 79 81 82 81 82 89 88 85 84 89 86 85 86 84 87 84 83 81 80 81 84 82 82 81 77 76 74 74 79 72 79
58 63 66 71 75 79 81 80 80 79 78 77 76 76 77 79 79 83 88 91 92 92 91 88 87 85 86 88 90 87 83 82 83 84 84 79 79 82 81 77 73 69 72
51 52 59 65 69 73 77 79 79 80 82 81 81 80 81 80 80 81 83 84 83 84 88 91 89 89 87 81 83 83 82 81 81 80 81 81 76 75 74 77 85 84 83
42 48 53 54 58 66 72 75 79 81 82 82 83 82 84 83 83 85 88 89 88 87 87 85 86 88 90 92 92 90 91 92 89 88 87 85 84 82 84 83 85 89 88
40 44 47 49 54 59 60 66 74 77 79 81 83 83 85 85 82 85 87 89 88 87 87 85 86 88 88 87 88 90 90 90 91 91 95 95 94 95 92 89 86 83 82
38 40 44 47 50 53 55 60 63 66 74 78 80 81 82 84 88 89 86 85 84 85 84 83 83 83 83 83 83 82 83 83 83 83 84 85 86 86 85 84 83 84 83
Wind_Direction
211 212 212 211 221 225 220 223 224 221 221 222 223 224 226 229 231 233 234 236 238 239 241 243 245 246 248 249 251 252 254 254 254 252 251 251 250 250 250 254 258 265 274
212 216 220 212 215 219 223 221 225 224 224 225 227 227 228 228 230 232 234 236 238 239 241 242 244 246 247 247 248 249 251 252 252 250 251 250 248 249 249 250 254 260 268
216 217 212 216 216 219 221 225 225 226 227 227 227 229 230 230 230 231 231 233 235 238 241 243 244 246 247 248 249 248 248 248 249 248 249 250 250 250 249 249 251 257 265
215 220 224 213 214 230 224 226 228 219 228 228 231 231 231 233 233 233 232 233 234 235 238 240 242 245 247 248 249 250 248 247 247 247 249 250 251 252 250 249 252 256 263
217 217 218 233 220 214 218 217 216 216 223 228 229 230 231 231 233 232 231 232 234 236 236 238 242 244 246 246 244 245 244 243 243 244 246 248 250 251 251 252 254 257 261
221 221 221 219 224 224 228 217 220 232 227 229 230 231 226 234 232 234 232 232 232 234 237 240 243 246 246 245 242 242 244 244 242 243 245 246 247 248 249 251 255 259 263
223 223 223 224 223 227 231 227 221 226 225 225 230 232 234 234 228 236 233 233 233 236 238 240 244 243 245 245 241 242 245 245 246 246 246 249 249 249 250 255 258 262 266
227 224 224 226 229 230 226 228 219 214 223 220 226 228 234 229 227 234 230 237 235 233 242 244 240 245 245 245 243 245 243 245 246 246 245 246 250 252 253 255 258 260 264
227 228 228 227 229 231 230 230 232 228 225 225 225 236 229 226 227 237 239 228 239 238 238 246 243 246 245 244 243 244 243 246 246 247 248 248 248 251 254 256 260 261 263
228 229 227 227 229 230 232 231 230 234 238 233 224 226 227 229 234 234 230 233 233 238 242 243 244 239 240 243 244 240 244 244 244 247 250 249 252 253 254 257 258 260 262
225 228 232 232 232 231 231 233 233 231 237 236 232 232 235 224 239 231 227 249 245 243 237 241 242 248 243 246 241 242 248 242 246 247 247 249 251 252 255 255 258 260 264
225 226 229 230 230 232 234 236 236 234 234 235 231 232 234 245 243 243 243 244 249 244 238 247 246 248 244 237 238 235 241 244 244 246 248 250 252 254 255 257 259 260 262
227 228 229 230 234 233 233 233 235 234 236 235 237 240 241 248 235 236 246 241 241 231 238 236 250 248 247 231 240 241 244 244 247 246 248 250 256 256 258 260 263 263 262
232 232 229 231 234 234 229 226 230 235 236 236 238 238 238 235 237 233 237 231 234 237 241 237 246 242 240 230 230 239 242 246 246 248 250 252 255 257 261 263 264 264 265
235 233 233 235 234 235 235 236 232 231 234 236 237 239 236 237 232 235 239 238 233 239 246 238 246 241 246 239 250 253 245 250 249 249 250 247 253 255 257 259 259 264 262
234 233 234 234 235 237 238 237 235 232 234 234 237 238 238 238 237 235 234 236 237 241 241 242 238 244 244 241 251 252 246 241 238 245 250 252 256 253 250 255 260 260 262
235 235 235 234 235 237 239 238 236 236 232 230 234 236 238 238 239 238 240 240 239 241 241 244 243 248 245 243 251 240 251 243 253 252 256 262 263 261 260 262 261 260 262
235 236 236 234 236 237 238 237 237 237 237 238 236 236 238 239 239 238 240 244 243 244 246 245 246 246 247 249 251 253 249 253 258 256 258 261 256 255 258 259 260 258 257
236 238 236 237 237 237 238 239 239 239 239 238 238 238 240 242 243 244 243 242 244 243 243 241 245 247 247 250 251 250 255 257 256 251 251 253 255 254 258 258 257 257 259
235 236 238 239 240 239 240 240 241 241 242 242 241 241 240 241 243 244 242 242 243 244 242 244 247 249 248 249 252 253 252 253 252 248 253 258 257 254 255 253 254 256 257
235 236 237 236 238 241 242 241 241 243 243 244 244 245 245 246 246 243 242 243 245 246 245 246 248 246 247 249 252 255 257 256 256 258 259 264 265 264 260 258 259 258 259
242 240 238 237 239 239 240 241 243 243 245 245 245 245 246 248 249 248 249 251 249 248 247 247 249 251 252 254 256 258 259 259 261 262 263 259 257 260 259 257 252 257 258
245 245 244 242 240 240 241 242 241 242 243 244 246 247 249 249 249 250 250 250 251 253 255 255 256 256 255 255 254 253 252 252 253 254 254 253 258 258 260 261 261 263 266
251 249 247 246 245 244 243 241 241 242 243 242 242 243 245 247 249 252 254 255 255 254 255 254 255 257 258 258 258 257 257 258 259 258 261 261 264 265 266 269 266 272 274
256 254 252 249 247 246 245 245 244 243 241 242 243 244 244 244 245 246 249 251 252 253 254 255 256 256 256 256 257 258 259 261 262 263 265 267 268 269 271 272 273 274 275
258 256 255 254 252 250 247 246 246 246 245 245 242 240 240 243 245 246 245 246 247 248 249 250 252 252 253 255 255 256 257 258 259 260 260 261 262 263 264 265 266 269 270